SAS1522 EKYT-EKCH

Flight info

Callsign SAS1522
Flight time N/A
Altitude 19000
Route AAL M725 ADSEN DCT TNO
Aircraft B736/M-SDE2E3FGHIRWXY/LB1

Departure

Time N/A
Airport Aalborg Airport (EKYT)

Arrival

Time 2026-05-07 15:56
Airport Copenhagen Kastrup Airport (EKCH)
Time Latitude Longitude Altitude Speed Heading
2026-05-07 15:38 56.19776 10.91037 19118 ft 431 kts 146°
2026-05-07 15:38 56.17322 10.94139 19116 ft 431 kts 146°
2026-05-07 15:39 56.14869 10.97235 19118 ft 431 kts 146°
2026-05-07 15:39 56.12412 11.00331 19119 ft 432 kts 146°
2026-05-07 15:39 56.09955 11.03421 19119 ft 432 kts 146°
2026-05-07 15:39 56.07489 11.06519 19111 ft 432 kts 146°
2026-05-07 15:40 56.05033 11.09600 19115 ft 431 kts 146°
2026-05-07 15:40 56.02575 11.12677 19117 ft 431 kts 146°
2026-05-07 15:40 56.00151 11.15710 18927 ft 421 kts 146°
2026-05-07 15:40 55.97766 11.18688 18344 ft 416 kts 146°
2026-05-07 15:41 55.95440 11.21586 17636 ft 409 kts 146°
2026-05-07 15:41 55.93101 11.24497 16947 ft 402 kts 146°
2026-05-07 15:41 55.90824 11.27327 16243 ft 396 kts 146°
2026-05-07 15:41 55.88577 11.30118 15606 ft 391 kts 146°
2026-05-07 15:42 55.86430 11.32783 15509 ft 372 kts 146°
2026-05-07 15:42 55.84370 11.35339 15334 ft 357 kts 146°
2026-05-07 15:42 55.82370 11.37811 15185 ft 344 kts 146°
2026-05-07 15:42 55.80446 11.40210 15017 ft 332 kts 144°
2026-05-07 15:43 55.78779 11.43116 14143 ft 344 kts 127°
2026-05-07 15:43 55.77439 11.46733 13150 ft 356 kts 122°
2026-05-07 15:43 55.76135 11.50525 12273 ft 362 kts 121°
2026-05-07 15:43 55.74846 11.54292 12005 ft 349 kts 121°
2026-05-07 15:44 55.73601 11.57881 11883 ft 334 kts 121°
2026-05-07 15:44 55.72398 11.61298 11778 ft 319 kts 121°
2026-05-07 15:44 55.71233 11.64563 11674 ft 306 kts 122°
2026-05-07 15:44 55.70112 11.67688 11600 ft 294 kts 122°
2026-05-07 15:45 55.69031 11.70689 11468 ft 285 kts 122°
2026-05-07 15:45 55.67974 11.73619 11194 ft 281 kts 122°
2026-05-07 15:45 55.66921 11.76531 10860 ft 280 kts 121°
2026-05-07 15:45 55.65886 11.79390 10540 ft 279 kts 121°
2026-05-07 15:46 55.63807 11.85115 10032 ft 271 kts 121°
2026-05-07 15:46 55.62793 11.87901 9550 ft 268 kts 121°
2026-05-07 15:46 55.61781 11.90682 8919 ft 270 kts 121°
2026-05-07 15:47 55.60766 11.93466 8398 ft 268 kts 121°
2026-05-07 15:47 55.59762 11.96217 7897 ft 265 kts 122°
2026-05-07 15:47 55.58762 11.98953 7373 ft 264 kts 121°
2026-05-07 15:47 55.57765 12.01679 6862 ft 263 kts 122°
2026-05-07 15:48 55.56774 12.04385 6376 ft 262 kts 122°
2026-05-07 15:48 55.55784 12.07082 5844 ft 260 kts 122°
2026-05-07 15:48 55.54805 12.09752 5377 ft 258 kts 122°
2026-05-07 15:48 55.53829 12.12408 4866 ft 257 kts 121°
2026-05-07 15:49 55.52877 12.14999 4502 ft 250 kts 121°
2026-05-07 15:49 55.51941 12.17536 4217 ft 242 kts 121°
2026-05-07 15:49 55.51079 12.19986 4103 ft 229 kts 113°
2026-05-07 15:49 55.50504 12.22575 4011 ft 225 kts 108°
2026-05-07 15:50 55.49441 12.27824 3828 ft 235 kts 107°
2026-05-07 15:50 55.48897 12.30477 3688 ft 222 kts 108°
2026-05-07 15:50 55.48385 12.32957 3584 ft 208 kts 108°
2026-05-07 15:51 55.47900 12.35303 3381 ft 200 kts 108°
2026-05-07 15:51 55.47427 12.37590 3173 ft 198 kts 107°
2026-05-07 15:51 55.47005 12.39899 2957 ft 197 kts 95°
2026-05-07 15:51 55.47329 12.42137 2731 ft 191 kts 46°
2026-05-07 15:52 55.48330 12.43660 2582 ft 192 kts 39°
2026-05-07 15:52 55.49344 12.45190 2480 ft 191 kts 39°
2026-05-07 15:52 55.50347 12.46712 2454 ft 187 kts 39°
2026-05-07 15:52 55.51277 12.48123 2435 ft 170 kts 38°
2026-05-07 15:53 55.52206 12.49511 1865 ft 181 kts 39°
2026-05-07 15:53 55.53122 12.50922 1576 ft 168 kts 40°
2026-05-07 15:53 55.53949 12.52203 1396 ft 147 kts 40°
2026-05-07 15:53 55.54673 12.53326 1187 ft 129 kts 40°
2026-05-07 15:54 55.55310 12.54312 1033 ft 118 kts 40°
2026-05-07 15:54 55.55938 12.55282 925 ft 125 kts 40°
2026-05-07 15:54 55.56593 12.56280 801 ft 123 kts 41°
2026-05-07 15:54 55.57003 12.56925 671 ft 123 kts 40°
2026-05-07 15:55 55.57626 12.57909 497 ft 125 kts 36°
2026-05-07 15:55 55.58285 12.58887 327 ft 121 kts 42°
2026-05-07 15:55 55.58903 12.59856 161 ft 118 kts 38°
2026-05-07 15:55 55.59495 12.60771 36 ft 114 kts 41°
2026-05-07 15:56 55.60034 12.61604 25 ft 89 kts 41°
2026-05-07 15:56 55.60393 12.62158 23 ft 36 kts 39°
2026-05-07 15:56 55.60619 12.62341 25 ft 35 kts
2026-05-07 15:56 55.60835 12.62466 25 ft 31 kts 41°
2026-05-07 15:57 55.60989 12.62705 23 ft 28 kts 40°
2026-05-07 15:57 55.61134 12.62926 24 ft 27 kts 39°
2026-05-07 15:57 55.61268 12.63132 26 ft 25 kts 43°
2026-05-07 15:57 55.61390 12.63325 23 ft 23 kts 41°
2026-05-07 15:58 55.61511 12.63510 26 ft 22 kts 39°
2026-05-07 15:58 55.61626 12.63685 23 ft 22 kts 41°
2026-05-07 15:58 55.61685 12.63778 24 ft 0 kts 44°
2026-05-07 15:59 55.61685 12.63779 24 ft 1 kts 44°
2026-05-07 15:59 55.61714 12.63827 26 ft 11 kts 43°
2026-05-07 15:59 55.61794 12.63949 25 ft 17 kts 42°
2026-05-07 15:59 55.61883 12.64078 23 ft 16 kts 31°
2026-05-07 16:00 55.61984 12.64163 23 ft 16 kts 23°
2026-05-07 16:00 55.62081 12.64243 24 ft 15 kts 25°
2026-05-07 16:00 55.62172 12.64319 23 ft 14 kts 26°
2026-05-07 16:00 55.62265 12.64391 21 ft 14 kts 15°
2026-05-07 16:01 55.62360 12.64434 23 ft 14 kts 16°
2026-05-07 16:01 55.62449 12.64483 23 ft 13 kts 32°
2026-05-07 16:01 55.62475 12.64630 26 ft 13 kts 59°
2026-05-07 16:01 55.62559 12.64651 23 ft 13 kts 358°
2026-05-07 16:02 55.62644 12.64664 23 ft 12 kts 11°
2026-05-07 16:02 55.62710 12.64690 23 ft 6 kts 11°
2026-05-07 16:02 55.62744 12.64663 24 ft 4 kts 290°
2026-05-07 16:02 55.62747 12.64636 23 ft 2 kts 281°
2026-05-07 16:03 55.62749 12.64611 24 ft 2 kts 281°
2026-05-07 16:03 55.62750 12.64602 26 ft 0 kts 282°